Dewpoint
60 59 58 56 56 56 55 55 55 55 54 55 57 59 60 60 60 58 57 56 55 55 54 54 53 53 44 32 26 27 49 47 24 18 18 17 14 13 8 9 11 8 8 9 10 11 11
58 57 56 55 55 54 53 52 51 52 52 53 54 56 57 59 59 58 58 56 55 54 55 54 53 51 41 26 33 30 25 25 20 20 18 16 15 15 12 10 10 13 11 9 9 9 11
56 55 55 54 55 54 52 51 50 51 51 52 53 54 55 57 57 58 57 56 56 54 54 54 53 44 41 32 34 35 35 26 21 20 18 17 17 15 15 10 13 10 7 4 6 7 7
56 55 54 55 54 53 52 51 50 50 50 50 51 52 53 54 55 57 57 56 55 55 55 53 51 44 34 38 38 39 38 32 27 23 18 19 19 16 16 16 10 6 12 10 11 11 10
54 54 54 56 54 54 53 52 51 49 49 50 51 51 51 52 54 55 56 56 55 55 54 51 45 41 29 42 36 31 32 34 29 24 21 18 20 17 16 7 7 9 7 9 9 9 9
52 52 54 54 53 52 51 51 51 52 52 50 50 51 51 52 54 54 55 54 54 52 46 44 43 40 35 29 33 33 29 31 27 23 20 20 18 16 14 10 8 9 8 9 10 9 8
52 52 53 52 51 50 48 49 50 50 51 50 50 50 51 52 54 50 49 47 41 39 41 35 32 31 31 37 37 23 24 26 22 22 21 20 17 13 15 16 13 12 12 12 13 13 14
53 53 51 51 50 48 46 48 49 49 50 50 50 50 50 52 52 49 50 42 40 36 29 32 33 34 36 37 34 33 22 22 22 20 19 19 18 18 17 16 15 15 16 17 18 19 17
52 53 52 51 51 48 46 46 47 48 49 49 50 48 51 50 49 48 46 42 37 34 32 26 32 31 30 33 26 25 30 20 20 20 20 20 16 18 17 18 20 21 21 21 19 19 18
52 52 52 51 50 49 48 48 48 46 47 49 48 49 50 49 46 45 43 43 38 43 28 14 27 31 36 33 27 32 31 22 19 18 18 19 18 18 18 18 19 17 18 19 18 18 15
52 52 52 51 50 50 49 48 47 46 47 49 48 49 49 46 45 40 42 42 42 40 14 18 29 35 36 31 29 28 33 30 24 22 21 17 18 18 19 18 17 17 18 18 19 18 18
52 52 51 51 50 50 49 48 47 46 47 49 49 50 48 45 45 44 45 42 42 25 12 21 33 32 32 31 28 28 29 28 24 25 24 20 20 20 19 20 20 20 19 20 21 20 17
51 52 51 51 50 50 49 48 47 47 47 49 49 50 46 45 41 45 43 39 24 17 6 17 25 30 28 26 29 21 25 27 19 17 20 21 20 22 23 21 22 21 21 21 18 19 16
51 51 51 50 49 49 49 49 48 48 48 48 49 49 47 43 45 45 40 31 19 -1 6 20 23 23 19 22 22 24 20 15 23 20 15 12 8 16 19 21 16 18 19 19 15 11 17
50 50 50 50 49 49 49 49 48 49 48 48 49 50 47 47 48 44 36 27 1 -4 14 18 16 20 18 19 19 20 17 10 13 19 17 15 12 17 20 20 18 21 20 20 21 22 21
50 50 50 49 49 48 48 49 49 49 48 49 46 45 43 48 48 41 35 20 16 21 21 20 1 5 9 12 15 12 9 17 16 20 21 18 19 17 20 20 20 20 21 23 25 20 16
49 49 49 49 49 48 48 48 48 48 48 47 43 38 43 47 47 38 32 19 20 23 22 15 12 11 11 8 12 6 4 13 19 20 22 21 22 17 20 19 17 24 23 24 26 28 22
49 49 49 49 48 48 48 48 48 47 48 45 40 35 44 47 37 35 29 25 29 22 22 18 18 15 17 18 18 18 15 13 23 24 21 22 25 26 19 19 19 21 21 21 25 22 27
48 48 48 48 48 47 48 47 47 47 47 43 37 38 45 44 31 30 27 26 23 23 19 20 20 21 24 26 28 28 17 18 19 17 20 25 26 16 11 22 24 23 23 24 25 29 28
48 48 48 48 48 47 47 47 47 47 47 42 36 33 38 40 34 24 24 23 23 26 22 21 22 26 24 29 26 32 23 24 32 29 37 32 24 22 21 20 22 22 21 23 26 31 30
48 48 48 48 48 47 47 47 47 47 47 43 38 33 32 31 33 29 25 22 21 20 24 25 25 24 22 25 23 23 23 23 23 26 24 24 25 27 25 26 22 24 26 25 23 27 29
48 48 49 48 47 47 47 47 47 46 46 43 35 35 34 28 30 30 27 25 22 20 24 24 24 22 25 24 23 23 24 24 27 30 29 27 27 32 31 28 23 31 36 35 31 30 29
47 47 47 48 46 47 47 47 46 46 46 41 43 41 33 30 29 28 29 26 24 26 26 25 24 25 26 26 28 29 29 29 28 28 29 28 26 23 21 25 24 26 33 34 28 28 29
47 47 46 46 46 47 47 46 45 46 44 44 43 40 34 29 29 27 25 26 26 26 26 26 28 28 28 32 31 33 33 32 31 30 30 27 26 24 24 25 22 33 28 27 28 28 28
47 47 47 46 46 46 47 46 46 46 46 44 45 40 37 30 25 25 25 26 26 28 28 29 30 31 33 38 35 32 28 28 29 30 30 31 30 25 24 21 21 20 21 27 27 23 27
46 47 47 46 45 45 45 45 45 45 46 46 45 46 40 32 28 30 29 31 31 31 31 32 33 35 36 36 32 26 20 21 21 26 29 29 33 28 26 25 16 22 27 29 28 23 27
46 47 47 46 45 45 45 45 45 46 45 45 44 45 40 36 32 34 33 32 34 33 32 32 33 35 38 33 30 26 23 21 21 22 27 27 29 27 26 25 22 26 28 29 24 27 30
46 46 46 46 45 45 45 45 45 46 45 45 44 46 42 36 34 36 35 32 33 34 31 30 34 36 34 31 31 28 26 26 24 22 26 26 27 27 28 25 23 30 29 26 31 32 31
45 46 45 44 45 45 45 45 45 45 45 45 42 46 46 39 38 39 38 37 36 34 36 38 35 37 36 35 35 31 30 29 24 24 25 25 26 26 27 25 33 33 33 33 32 32 32
Lifted_Index
2 2 3 3 3 3 3 3 3 4 4 5 5 5 5 5 4 4 4 4 5 6 7 8 9 9 9 9 9 8 7 7 6 6 6 6 6 6 6 7 7 7 7 8 8 8 8
3 3 3 3 3 3 4 4 5 5 5 6 7 7 6 6 5 4 4 5 5 6 8 8 9 9 9 9 9 8 7 6 6 6 6 6 7 7 7 7 7 7 7 7 7 8 8
3 4 4 4 4 4 5 7 8 8 8 9 9 9 8 7 6 6 6 6 6 7 8 9 9 9 9 10 9 9 7 6 6 6 6 7 7 7 7 7 7 7 6 6 6 7 7
4 5 5 5 5 6 7 9 10 11 11 11 12 11 10 9 8 7 7 7 7 7 8 9 9 9 9 9 9 8 7 6 6 6 7 8 8 7 7 7 6 6 5 5 5 6 6
6 6 6 6 7 8 9 10 11 12 12 12 12 12 12 10 9 8 8 7 7 8 9 9 10 9 9 9 8 8 7 7 7 7 7 8 8 7 6 6 5 5 4 4 5 6 6
8 8 7 8 9 10 11 11 11 11 12 12 12 12 12 11 10 9 8 8 8 8 9 9 9 9 9 9 8 8 8 7 7 7 7 7 7 6 6 5 5 4 4 4 5 6 6
9 9 9 9 10 11 12 12 11 11 11 12 12 12 12 11 10 9 9 8 8 9 9 9 9 9 9 9 8 8 8 8 8 7 7 7 6 6 6 6 6 5 5 5 6 6 6
8 9 9 10 10 11 12 12 12 12 12 11 11 11 11 11 10 9 9 8 9 10 10 9 10 10 9 9 8 8 8 9 8 7 7 6 6 6 7 7 6 6 5 5 6 6 6
7 8 8 9 10 11 11 12 12 12 12 11 11 11 11 11 10 9 9 9 10 10 9 9 10 10 9 9 8 8 8 8 8 7 7 6 7 7 8 7 6 6 6 6 6 6 6
7 7 7 8 9 10 11 12 12 12 12 11 10 10 10 10 10 9 9 9 9 9 8 8 9 9 8 8 8 8 8 8 8 7 7 7 7 8 8 7 7 6 7 7 7 6 6
6 6 7 7 8 9 10 11 12 12 12 11 10 9 9 10 9 9 9 9 9 7 6 7 8 8 7 7 7 8 8 8 7 7 7 7 7 7 7 7 7 7 7 7 6 6 5
6 6 6 7 7 8 9 10 11 11 11 10 9 9 9 9 8 8 8 7 7 6 5 6 7 7 6 6 6 7 7 7 6 6 6 6 7 7 6 6 6 6 6 5 5 4 4
6 6 6 7 7 8 8 9 10 10 10 9 9 9 9 8 8 7 7 6 5 5 5 6 6 6 5 5 5 6 6 5 5 5 5 5 5 5 5 5 5 4 4 3 2 2 2
5 5 6 6 7 7 7 8 9 9 9 9 8 8 8 8 7 7 6 6 5 5 6 6 6 5 5 4 5 5 5 5 4 4 4 4 4 5 5 4 3 3 2 2 1 1 1
4 4 5 5 6 6 7 7 8 8 8 8 7 7 7 7 7 7 6 6 5 6 7 6 5 4 4 4 4 5 5 5 4 4 4 4 4 4 4 3 3 2 2 1 1 1 0
3 3 4 4 5 6 6 6 7 7 7 7 7 6 7 6 6 6 6 6 7 7 7 6 5 4 4 5 5 5 5 5 4 4 4 4 3 3 3 2 2 1 1 1 1 0 0
2 3 3 3 4 5 5 6 6 7 7 7 7 7 7 6 6 6 6 7 7 7 7 6 5 5 5 5 5 5 5 5 4 3 3 3 3 3 2 2 1 1 1 0 0 -0 -0
2 2 2 3 4 4 5 5 6 6 7 7 7 7 6 6 6 6 6 7 7 6 6 6 6 6 5 5 5 5 5 5 4 3 3 2 3 3 2 1 1 0 -0 -0 -0 -0 -0
1 1 2 2 3 3 4 5 5 6 6 7 7 7 6 6 6 6 6 6 6 6 6 6 6 6 5 5 5 5 5 4 4 3 3 2 2 2 2 1 0 -0 -0 -0 -0 -0 -0
1 1 1 2 2 3 3 4 5 5 6 6 7 7 6 6 6 6 6 6 6 6 6 6 6 5 5 5 5 5 5 4 4 3 3 3 3 2 1 1 0 0 -0 -0 -0 -0 -0
0 0 0 1 2 2 2 3 4 4 5 6 6 6 6 6 6 6 6 6 6 6 6 6 5 5 5 5 5 5 5 4 4 3 3 3 3 2 1 1 1 0 0 -0 -0 -0 -0
0 0 1 1 1 1 2 2 3 4 4 5 6 6 6 6 6 6 6 6 6 5 5 5 5 5 5 5 4 5 5 5 4 3 3 3 3 2 2 1 1 1 0 0 -0 -0 -0
1 1 1 1 1 1 1 1 2 3 4 5 5 5 5 5 5 5 6 6 5 5 5 5 5 5 4 4 4 5 5 5 4 4 3 3 3 3 2 1 1 1 0 0 -0 -0 -0
1 1 1 1 1 1 1 1 2 2 3 4 4 4 5 5 5 5 5 5 5 5 5 5 4 4 4 4 4 4 4 4 4 4 3 3 3 3 2 1 0 0 1 0 0 0 0
1 1 1 1 1 1 1 1 1 2 2 3 4 4 4 5 5 5 5 5 5 4 4 4 4 4 4 4 4 4 3 3 3 3 3 3 2 2 1 1 0 1 1 1 1 1 0
1 1 1 1 1 1 1 1 1 1 2 2 3 4 4 5 5 5 4 4 4 4 4 4 3 3 3 3 3 3 3 3 2 2 2 2 2 2 1 0 1 1 1 1 1 1 1
1 1 1 1 1 1 1 1 1 2 2 2 3 3 4 5 5 4 4 4 4 3 3 3 3 3 3 3 2 2 2 2 1 1 1 1 1 1 1 0 0 1 1 1 1 1 1
1 1 1 1 1 1 1 1 1 2 2 3 3 3 4 5 5 5 4 4 4 4 3 3 3 3 2 2 2 2 2 2 1 1 1 1 0 0 0 0 0 1 1 1 1 1 2
1 1 1 1 1 1 1 1 2 2 3 3 3 3 4 5 5 5 4 4 4 4 4 3 3 3 2 2 1 1 1 1 1 1 0 0 0 0 0 0 0 1 1 1 2 2 3